Overview Statistics Trail Chart Weather Telemetry Raw packets
 

This is the latest recevied weather packets stored in our database for station/object KI5NXU. If no packets are shown the sender has not sent any weather packets the latest 10 day(s).

<< 59 60 61 62 63 64 65 >>
Time Temp. Humidity Pressure Rain* Wind** Luminosity Snow
1787958507 38.89° C 29% 1014.2 hPa 0 mm - 210 W/m² -
1787958203 38.89° C 28% 1014.4 hPa 0 mm - 225 W/m² -
1787957902 38.89° C 28% 1014.2 hPa 0 mm - 242 W/m² -
1787957596 38.89° C 28% 1014.3 hPa 0 mm - 236 W/m² -
1787957292 38.33° C 29% 1014.4 hPa 0 mm - 254 W/m² -
1787956991 38.89° C 28% 1014.4 hPa 0 mm - 272 W/m² -
1787956690 38.89° C 29% 1014.3 hPa 0 mm - 267 W/m² -
1787956386 39.44° C 29% 1014.4 hPa 0 mm - 258 W/m² -
1787956081 39.44° C 28% 1014.3 hPa 0 mm - 334 W/m² -
1787955776 38.89° C 29% 1014.4 hPa 0 mm - 360 W/m² -
1787955472 38.89° C 29% 1014.3 hPa 0 mm - 379 W/m² -
1787955171 39.44° C 28% 1014.6 hPa 0 mm - 357 W/m² -
1787954867 40° C 28% 1014.6 hPa 0 mm - 313 W/m² -
1787954563 39.44° C 28% 1014.6 hPa 0 mm - 308 W/m² -
1787954263 39.44° C 28% 1014.8 hPa 0 mm - 395 W/m² -
1787953962 38.89° C 28% 1015 hPa 0 mm - 421 W/m² -
1787953661 38.89° C 28% 1014.8 hPa 0 mm - 422 W/m² -
1787953356 39.44° C 28% 1014.8 hPa 0 mm - 442 W/m² -
1787953055 39.44° C 28% 1014.9 hPa 0 mm - 482 W/m² -
1787952754 39.44° C 29% 1015 hPa 0 mm - 457 W/m² -
1787952449 39.44° C 28% 1015.3 hPa 0 mm - 161 W/m² -
1787952146 40° C 27% 1015.4 hPa 0 mm - 507 W/m² -
1787951844 39.44° C 28% 1015.2 hPa 0 mm - 515 W/m² -
1787951540 39.44° C 28% 1015.6 hPa 0 mm - 583 W/m² -
1787951236 38.89° C 28% 1015.6 hPa 0 mm - 559 W/m² -

* Rain latest hour (hover to see other rain measurements)
** Current wind speed in m/s (hover to see current wind gust speed)